Location: *
(51.9321°S, 170.3289°W)
Time: 08:16:09
(UTC+00:00)

Daily predictions for brighter satellites

Satellite Brightness Start Highest point End
(mag) Time Altitude Azimuth Time Altitude Azimuth Time Altitude Azimuth
USA 308 3.6 12:03:17 17° ENE 12:03:17 17° ENE 12:04:18 10° E
ALOS 4.3 12:00:58 10° ENE 12:04:50 26° ESE 12:08:45 10° S
Cosmos 2208 Rocket 4.4 12:00:01 10° SSW 12:05:12 49° WNW 12:08:08 24° N
SJ 16-02 1.7 12:03:17 24° NW 12:05:50 60° WSW 12:10:15 10° SSE
Cosmos 1934 Rocket 4.1 12:00:40 10° S 12:07:10 82° E 12:12:05 18° NNE
SAR-Lupe-1 4.1 12:06:15 32° N 12:07:51 68° WNW 12:11:33 10° SSW
MSX 3.9 12:04:43 17° NNE 12:09:16 86° ESE 12:15:07 10° SSW
Genesis I 3.1 12:05:41 10° SW 12:09:26 78° SE 12:13:08 10° NE
Meteor 2-5 Rocket 4.0 12:05:04 10° SSW 12:10:46 56° W 12:14:11 23° NNW
Cosmos 1674 Rocket 3.8 12:07:52 10° SSW 12:12:20 60° W 12:14:39 27° NNW
Cosmos 1605 Rocket 4.4 12:06:30 10° S 12:12:37 59° ESE 12:18:26 11° NNE
Cosmos 1953 3.8 12:11:34 15° NE 12:14:08 29° E 12:17:39 10° SSE
Cosmos 2322 Rocket 3.7 12:10:21 10° SSW 12:15:36 36° SE 12:20:48 10° ENE
Spot 4 4.3 12:11:07 10° S 12:15:54 55° WSW 12:18:58 21° NW
Cosmos 1697 Rocket 3.6 12:10:56 10° SW 12:15:55 31° WNW 12:18:30 22° NNW
ADEOS II 2.3 12:12:08 14° NNE 12:16:38 74° ESE 12:21:58 10° SSW
Cosmos 1703 3.4 12:18:33 10° SSW 12:22:24 57° W 12:24:12 28° NNW
Cosmos 1908 4.1 12:20:56 23° NW 12:22:47 38° WSW 12:26:24 10° S
Cosmos 2333 Rocket 4.2 12:18:03 10° SSW 12:23:01 29° SE 12:27:59 10° E
Cosmos 1315 Rocket 3.3 12:19:03 10° S 12:23:03 57° ESE 12:26:17 15° NNE
ARGOS Delta rocket 4.1 12:23:14 10° S 12:27:49 56° WSW 12:30:32 22° NW
Cosmos 1782 Rocket 4.4 12:24:59 18° NNE 12:28:06 47° E 12:32:30 10° SSE
USA 81 4.5 12:25:49 21° NNW 12:29:10 52° WSW 12:34:24 10° S
Resurs 1-4 Rocket 2.3 12:26:23 21° N 12:29:52 60° WNW 12:35:10 10° SSW
IDEFIX/ARIANE 42P 2.7 12:26:51 21° N 12:30:20 61° WNW 12:35:38 10° SSW
Cosmos 773 Rocket 4.0 12:27:15 10° SSW 12:32:36 68° WNW 12:36:51 16° N
ATLAS 3B R/B 2.5 12:28:55 10° SW 12:35:11 61° NW 12:41:21 10° NNE
Cosmos 1892 3.1 12:31:59 10° S 12:35:39 57° ESE 12:38:32 15° NNE
Cosmos 1535 Rocket 4.5 12:29:55 10° S 12:36:09 84° W 12:41:16 16° N
SL-16 R/B 2.6 12:32:23 10° SSW 12:38:08 66° SE 12:43:49 10° NE
AQUA 3.8 12:38:35 16° NNE 12:42:23 81° WNW 12:47:15 10° SSW
CZ-2D R/B 2.5 12:39:10 20° NNW 12:42:51 51° W 12:48:18 10° SSW
Lacrosse 5 rocket 0.9 12:40:08 10° WSW 12:43:45 64° NW 12:47:26 10° NE
Cosmos 1825 2.7 12:40:39 10° S 12:44:14 53° ESE 12:47:25 12° NNE
Cosmos 1975 Rocket 3.2 12:40:14 10° S 12:44:40 72° ESE 12:48:35 13° NNE
Cosmos 1980 Rocket 2.9 12:40:04 10° SW 12:45:16 37° WNW 12:48:42 19° NNW
COSMOS 2406 3.3 12:41:45 20° NNW 12:45:52 87° ENE 12:51:44 10° SSE
ATLAS CENTAUR R/B 1.4 12:43:01 10° SW 12:47:32 73° NW 12:51:55 10° NNE
Cosmos 2369 4.2 12:42:27 10° SW 12:47:45 41° WNW 12:51:33 18° N
Cosmos 1340 2.9 12:49:31 23° NW 12:51:30 52° WSW 12:55:04 10° S
Cosmos 1908 Rocket 3.9 12:52:20 20° NNW 12:55:15 57° WSW 12:59:45 10° S
Cosmos 44 Rocket 3.7 12:53:58 19° N 12:57:03 49° ENE 13:01:33 10° SE
USA 306 3.4 12:57:19 22° N 12:58:45 30° NE 13:02:00 10° E
Cosmos 1300 3.2 12:57:13 21° NW 12:59:23 46° WSW 13:03:02 10° S
Cosmos 1455 3.0 12:58:47 13° NNE 13:01:48 43° E 13:05:20 10° SSE
Cosmos 1408 3.8 13:00:38 10° SW 13:03:21 23° W 13:04:36 18° WNW
Cosmos 1833 Rocket 4.1 12:59:21 10° WNW 13:04:24 32° SW 13:09:29 10° SSE
FENGYUN 3A 3.7 13:02:07 11° N 13:07:17 70° WNW 13:12:47 10° SSW
Meteor 2-10 Rocket 4.1 13:03:32 17° NW 13:07:56 56° WSW 13:13:45 10° S
ATLAS 2AS CENTAUR R/B 3.1 13:02:24 10° WNW 13:09:02 61° SW 13:16:05 10° SE
Cosmos 1633 3.4 13:14:25 10° SSW 13:17:02 26° W 13:18:24 19° NW
DNEPR-1 R/B 4.4 13:14:28 14° N 13:17:46 37° ENE 13:21:36 10° SE
ISS -2.2 13:17:10 17° N 13:18:48 24° NNE 13:21:37 10° E
Cosmos 2278 4.0 13:18:24 10° SW 13:23:52 47° WNW 13:29:18 10° N
Helios 1A Rocket 3.9 13:22:52 10° S 13:26:30 33° WSW 13:29:33 13° NW
Cosmos 1538 Rocket 4.1 13:21:51 10° SSW 13:27:19 78° WNW 13:32:44 10° NNE
Cosmos 2082 Rocket 2.8 13:22:45 12° NW 13:27:54 51° SW 13:33:32 10° SSE
Cosmos 1300 Rocket 3.8 13:27:30 15° NNW 13:31:13 61° WSW 13:35:42 10° S
Cosmos 2098 Rocket 4.1 13:30:36 12° WNW 13:32:28 18° WSW 13:34:49 10° SSW
USA 229 DEB 3.5 13:26:21 10° SW 13:33:12 75° NW 13:39:25 10° NE
USA 229 3.5 13:26:25 10° SW 13:33:16 76° NW 13:39:29 10° NE
Cosmos 2237 4.4 13:27:48 10° SW 13:33:27 56° WNW 13:39:03 10° N
CZ-2C R/B 2.9 13:28:43 10° NNE 13:33:52 69° ESE 13:38:59 10° S
CZ-2C R/B 3.4 13:29:02 10° N 13:34:36 65° WNW 13:40:28 10° SSW
USA 308 1.7 13:33:48 11° W 13:36:01 73° SSW 13:38:51 10° ESE
Cosmos 1025 Rocket 4.3 13:33:16 10° SSW 13:36:58 26° W 13:40:05 13° NW
Cosmos 1777 Rocket 4.4 13:36:00 13° NW 13:40:41 55° WSW 13:45:53 10° SSE
ALOS 2.5 13:37:16 10° N 13:41:50 51° W 13:46:28 10° SSW
Cosmos 2360 Rocket 2.2 13:37:27 10° SSW 13:43:12 88° WNW 13:48:54 10° NNE
NOSS 3-1 (A) 4.1 13:39:23 10° SW 13:44:59 31° WNW 13:49:42 10° N
SJ 16-02 3.8 13:43:20 10° WSW 13:45:15 12° SW 13:47:09 10° SSW
Cosmos 2016 Rocket 4.5 13:39:23 10° S 13:45:51 68° ESE 13:52:15 10° NNE
In-Cosmos 22 Rocket 4.4 13:41:36 10° SSW 13:47:29 66° W 13:53:13 10° N
Cosmos 1727 Rocket 4.1 13:42:57 10° NNW 13:49:11 73° WSW 13:55:32 10° S
Cosmos 2219 Rocket 2.9 13:44:07 10° SSW 13:49:43 60° SE 13:55:17 10° NE
Meteor 1-11 4.4 13:44:15 10° SSW 13:50:06 66° W 13:55:49 10° N
Cosmos 1953 3.5 13:46:52 11° NW 13:50:06 30° WSW 13:53:41 10° S
CZ-4 R/B 4.4 13:46:57 10° NNW 13:51:20 38° W 13:55:45 10° SSW
Thor Agena Rocket 3.9 13:48:53 10° N 13:53:51 48° W 13:58:56 10° SSW
Cosmos 2123 Rocket 4.5 13:49:08 10° N 13:55:18 64° E 14:01:31 10° SSE
Sich 1 Rocket 3.8 13:51:28 10° N 13:56:04 83° E 14:00:46 10° SSE
ADEOS II 3.6 13:53:01 10° NW 13:56:51 20° W 14:00:46 10° SW
USA 281 3.2 13:52:52 10° NNE 13:59:28 79° WNW 14:06:09 10° SSW
Cosmos 2322 Rocket 2.4 13:54:22 10° SW 13:59:54 54° WNW 14:05:21 10° N
NOAA 11 4.4 13:54:46 10° NNE 14:00:18 83° ESE 14:05:56 10° SSW
Cosmos 304 Rocket 3.8 13:55:37 10° NNW 14:00:27 81° WSW 14:05:22 10° SSE
USA 305 1.9 13:58:56 13° NW 14:00:30 33° NNE 14:02:19 10° E
Cosmos 332 Rocket 4.3 13:55:57 10° N 14:00:44 59° ENE 14:05:33 10° SSE
ATLAS 5 CENTAUR R/B 3.8 13:57:18 10° SW 14:03:29 42° SSE 14:08:33 10° E
SL-27 R/B 4.4 14:03:55 10° NNE 14:06:19 21° ENE 14:08:47 10° SE
USA 307 1.7 14:04:20 11° NW 14:06:28 45° NNE 14:08:40 10° ESE
Meteor 1-4 Rocket 3.3 14:03:57 10° SSW 14:06:48 28° W 14:09:37 10° NNW
Cosmos 2173 Rocket 4.1 14:01:07 10° SSW 14:07:12 61° W 14:13:13 10° N
COSMOS 2428 3.9 14:02:13 10° SSW 14:07:48 48° SE 14:13:19 10° NE
Cosmos 2333 Rocket 2.2 14:02:09 10° SSW 14:07:52 73° WNW 14:13:31 10° NNE
PAYLOAD A 3.8 14:03:49 10° N 14:08:34 69° WNW 14:13:21 10° SSW
Envisat 3.1 14:12:54 10° N 14:17:57 59° W 14:23:05 10° SSW
Geosat 4.4 14:13:12 10° N 14:18:00 43° WNW 14:22:50 10° SW
Cosmos 2100 Rocket 4.3 14:12:05 10° SSW 14:18:03 49° W 14:23:58 10° NNW
Okean 2 Rocket 3.2 14:13:58 10° NNW 14:18:27 66° WSW 14:22:57 10° S
Cosmos 1825 4.1 14:16:29 10° SW 14:18:28 14° W 14:20:27 10° WNW
Cosmos 1802 Rocket 4.1 14:12:05 10° SSW 14:18:31 67° W 14:24:47 10° N
Cosmos 921 Rocket 3.1 14:15:06 10° SSW 14:19:24 84° ESE 14:23:37 10° NNE
Cosmos 371 Rocket 3.9 14:16:18 10° NW 14:21:02 47° WSW 14:25:50 10° SSE
SL-16 R/B 3.2 14:17:07 10° SW 14:21:48 27° WNW 14:26:28 10° NNW
